Weather History for Oklahoma City / Page Muni, OK

Change the Weather History Date:

Monday, January 21, 2013

  Actual Average (KOKC) Record (KOKC)
Temperature  
Mean Temperature 30 °F 39 °F  
Max Temperature 41 °F 50 °F 77 °F (2005)
Min Temperature 19 °F 29 °F -3 °F (1930)
Degree Days  
Heating Degree Days 35 26  
Month to date heating degree days 546  
Since 1 July heating degree days 1901  
Moisture  
Dew Point 12 °F    
Average Humidity 49    
Maximum Humidity 68    
Minimum Humidity 31    
Precipitation  
Precipitation 0.00 in 0.05 in 1.40 in (1932)
Month to date precipitation 0.88  
Year to date precipitation 0.88  
Sea Level Pressure  
Sea Level Pressure 30.33 in    
Wind  
Wind Speed 12 mph (NNE)    
Max Wind Speed 21 mph    
Max Gust Speed 25 mph    
Visibility 10 miles    
Events      
T = Trace of Precipitation, MM = Missing Value Source: NWS Daily Summary

Daily Weather History Graph

Daily Weather History Graph

Search for Another Location

Airport:

Trip Planner

Search our weather history database for the weather conditions in past years. The results will help you decide how hot, cold, wet, or windy it might be!

Date:

Astronomy

Jan. 21, 2013 Rise Set
Actual Time 7:37 AM CST 5:48 PM CST
Civil Twilight 7:10 AM CST 6:15 PM CST
Nautical Twilight 6:39 AM CST 6:46 PM CST
Astronomical Twilight 6:08 AM CST 7:16 PM CST
Moon 1:29 PM CST (1/21) 3:06 AM CST (1/21)
Length of Visible Light 11h 05m
Length of Day
10h 10m
Waxing Gibbous, 75% of the Moon is Illuminated
Jan 21
Waxing Gibbous
Jan 26
Full
Feb 3
Last Quarter
Feb 10
New
Feb 17
First Quarter

Hourly Weather History & Observations

Time (CST) Temp. Windchill Dew Point Humidity Pressure Visibility Wind Dir Wind Speed Gust Speed Precip Events Conditions
12:15 AM 32.0 °F 19.8 °F 17.6 °F 55% 30.29 in 10.0 mi NNE 20.7 mph 25.3 mph N/A   Unknown
12:35 AM 32.0 °F 21.6 °F 15.8 °F 51% 30.31 in 10.0 mi NNE 15.0 mph 20.7 mph N/A   Unknown
12:55 AM 30.2 °F 19.3 °F 15.8 °F 55% 30.31 in 10.0 mi NNE 15.0 mph - N/A   Unknown
1:15 AM 28.4 °F 17.5 °F 15.8 °F 59% 30.32 in 10.0 mi NNE 13.8 mph - N/A   Unknown
1:35 AM 28.4 °F 17.5 °F 15.8 °F 59% 30.33 in 10.0 mi North 13.8 mph - N/A   Unknown
1:55 AM 26.6 °F 15.2 °F 15.8 °F 64% 30.34 in 10.0 mi North 13.8 mph - N/A   Unknown
2:15 AM 26.6 °F 15.2 °F 14.0 °F 59% 30.34 in 10.0 mi North 13.8 mph 19.6 mph N/A   Unknown
2:35 AM 24.8 °F 11.9 °F 14.0 °F 64% 30.34 in 10.0 mi NNE 16.1 mph - N/A   Unknown
2:55 AM 24.8 °F 13.4 °F 14.0 °F 64% 30.35 in 10.0 mi North 12.7 mph - N/A   Unknown
3:15 AM 24.8 °F 12.9 °F 14.0 °F 64% 30.35 in 10.0 mi North 13.8 mph 18.4 mph N/A   Unknown
3:35 AM 24.8 °F 12.4 °F 14.0 °F 64% 30.35 in 10.0 mi North 15.0 mph - N/A   Unknown
3:55 AM 23.0 °F 10.6 °F 14.0 °F 68% 30.35 in 10.0 mi North 13.8 mph 17.3 mph N/A   Unknown
4:15 AM 23.0 °F 9.6 °F 14.0 °F 68% 30.35 in 10.0 mi NNE 16.1 mph 19.6 mph N/A   Unknown
4:35 AM 23.0 °F 10.6 °F 12.2 °F 63% 30.35 in 10.0 mi North 13.8 mph 18.4 mph N/A   Unknown
4:55 AM 23.0 °F 11.1 °F 12.2 °F 63% 30.36 in 10.0 mi North 12.7 mph - N/A   Unknown
5:15 AM 23.0 °F 10.1 °F 12.2 °F 63% 30.35 in 10.0 mi NNE 15.0 mph - N/A   Unknown
5:35 AM 23.0 °F 10.1 °F 10.4 °F 59% 30.35 in 10.0 mi NNE 15.0 mph 19.6 mph N/A   Unknown
5:55 AM 23.0 °F 9.6 °F 10.4 °F 59% 30.35 in 10.0 mi NNE 16.1 mph 20.7 mph N/A   Unknown
6:15 AM 21.2 °F 8.3 °F 10.4 °F 63% 30.34 in 10.0 mi NNE 13.8 mph 20.7 mph N/A   Unknown
6:35 AM 21.2 °F 8.9 °F 10.4 °F 63% 30.35 in 10.0 mi NNE 12.7 mph - N/A   Unknown
6:55 AM 21.2 °F 10.1 °F 10.4 °F 63% 30.36 in 10.0 mi NNE 10.4 mph - N/A   Unknown
7:15 AM 19.4 °F 8.6 °F 10.4 °F 68% 30.37 in 10.0 mi NNE 9.2 mph - N/A   Unknown
7:35 AM 19.4 °F 7.2 °F 10.4 °F 68% 30.37 in 10.0 mi NNE 11.5 mph - N/A   Clear
7:55 AM 19.4 °F 7.2 °F 10.4 °F 68% 30.38 in 10.0 mi North 11.5 mph - N/A   Clear
8:15 AM 21.2 °F 10.1 °F 10.4 °F 63% 30.39 in 10.0 mi North 10.4 mph 16.1 mph N/A   Clear
8:35 AM 23.0 °F 13.1 °F 10.4 °F 59% 30.40 in 10.0 mi North 9.2 mph - N/A   Clear
8:55 AM 24.8 °F 14.0 °F 10.4 °F 54% 30.41 in 10.0 mi NNE 11.5 mph - N/A   Clear
9:15 AM 24.8 °F 12.9 °F 10.4 °F 54% 30.42 in 10.0 mi NNE 13.8 mph - N/A   Clear
9:35 AM 26.6 °F 16.2 °F 10.4 °F 51% 30.43 in 10.0 mi NNE 11.5 mph 17.3 mph N/A   Clear
9:55 AM 26.6 °F 15.7 °F 10.4 °F 51% 30.43 in 10.0 mi NNE 12.7 mph - N/A   Clear
10:15 AM 28.4 °F 17.5 °F 10.4 °F 47% 30.43 in 10.0 mi North 13.8 mph - N/A   Clear
10:35 AM 28.4 °F 17.5 °F 10.4 °F 47% 30.43 in 10.0 mi NNE 13.8 mph 19.6 mph N/A   Clear
10:55 AM 28.4 °F 18.0 °F 10.4 °F 47% 30.43 in 10.0 mi NNE 12.7 mph 17.3 mph N/A   Clear
11:15 AM 32.0 °F 23.0 °F 12.2 °F 44% 30.42 in 10.0 mi NNE 11.5 mph 17.3 mph N/A   Clear
11:55 AM 32.0 °F 23.6 °F 12.2 °F 44% 30.41 in 10.0 mi NNE 10.4 mph - N/A   Clear
12:15 PM 33.8 °F 24.3 °F 12.2 °F 41% 30.40 in 10.0 mi North 13.8 mph 18.4 mph N/A   Clear
12:35 PM 35.6 °F 26.6 °F 12.2 °F 38% 30.38 in 10.0 mi NNE 13.8 mph - N/A   Clear
12:55 PM 35.6 °F 27.1 °F 12.2 °F 38% 30.36 in 10.0 mi NE 12.7 mph 16.1 mph N/A   Clear
1:15 PM 37.4 °F 30.8 °F 12.2 °F 36% 30.35 in 10.0 mi North 9.2 mph - N/A   Clear
1:35 PM 37.4 °F 31.4 °F 12.2 °F 36% 30.34 in 10.0 mi NNE 8.1 mph - N/A   Clear
1:55 PM 37.4 °F 31.4 °F 10.4 °F 33% 30.32 in 10.0 mi NNE 8.1 mph - N/A   Clear
2:15 PM 39.2 °F 34.2 °F 10.4 °F 31% 30.31 in 10.0 mi NE 6.9 mph - N/A   Clear
2:35 PM 39.2 °F 33.6 °F 12.2 °F 33% 30.31 in 10.0 mi NNE 8.1 mph - N/A   Clear
2:55 PM 39.2 °F 33.6 °F 12.2 °F 33% 30.30 in 10.0 mi NNE 8.1 mph - N/A   Clear
3:15 PM 39.2 °F 35.9 °F 12.2 °F 33% 30.29 in 10.0 mi NE 4.6 mph - N/A   Clear
3:35 PM 39.2 °F - 10.4 °F 31% 30.29 in 10.0 mi North - - N/A   Clear
3:55 PM 41.0 °F 37.1 °F 12.2 °F 31% 30.30 in 10.0 mi NNE 5.8 mph - N/A   Clear
4:15 PM 39.2 °F 35.9 °F 10.4 °F 31% 30.29 in 10.0 mi ENE 4.6 mph - N/A   Clear
4:35 PM 39.2 °F 33.6 °F 12.2 °F 33% 30.29 in 10.0 mi ENE 8.1 mph - N/A   Clear
4:55 PM 39.2 °F 35.0 °F 10.4 °F 31% 30.28 in 10.0 mi NE 5.8 mph - N/A   Clear
5:15 PM 39.2 °F 35.0 °F 12.2 °F 33% 30.28 in 10.0 mi NE 5.8 mph - N/A   Clear
5:35 PM 35.6 °F 32.8 °F 12.2 °F 38% 30.27 in 10.0 mi NE 3.5 mph - N/A   Clear
5:55 PM 37.4 °F - 10.4 °F 33% 30.26 in 10.0 mi Calm Calm - N/A   Clear
6:15 PM 37.4 °F - 10.4 °F 33% 30.26 in 10.0 mi Calm Calm - N/A   Clear
6:35 PM 37.4 °F - 10.4 °F 33% 30.26 in 10.0 mi Calm Calm - N/A   Clear
6:55 PM 35.6 °F 32.8 °F 10.4 °F 35% 30.26 in 10.0 mi NE 3.5 mph - N/A   Clear
7:15 PM 33.8 °F - 10.4 °F 38% 30.27 in 10.0 mi Calm Calm - N/A   Clear
7:35 PM 33.8 °F 30.8 °F 10.4 °F 38% 30.27 in 10.0 mi NNE 3.5 mph - N/A   Unknown
7:55 PM 32.0 °F 26.4 °F 12.2 °F 44% 30.27 in 10.0 mi NNE 5.8 mph - N/A   Unknown
8:15 PM 32.0 °F 26.4 °F 12.2 °F 44% 30.28 in 10.0 mi NNE 5.8 mph - N/A   Unknown
8:35 PM 32.0 °F 27.5 °F 12.2 °F 44% 30.28 in 10.0 mi NNE 4.6 mph - N/A   Unknown
8:55 PM 32.0 °F 28.7 °F 10.4 °F 41% 30.29 in 10.0 mi NE 3.5 mph - N/A   Unknown
9:15 PM 32.0 °F 28.7 °F 10.4 °F 41% 30.29 in 10.0 mi NE 3.5 mph - N/A   Unknown
9:35 PM 30.2 °F 25.4 °F 12.2 °F 47% 30.30 in 10.0 mi NNE 4.6 mph - N/A   Unknown
9:55 PM 32.0 °F 27.5 °F 12.2 °F 44% 30.30 in 10.0 mi NE 4.6 mph - N/A   Unknown
10:15 PM 30.2 °F 25.4 °F 14.0 °F 51% 30.30 in 10.0 mi ENE 4.6 mph - N/A   Unknown
10:35 PM 28.4 °F 23.3 °F 14.0 °F 55% 30.30 in 10.0 mi East 4.6 mph - N/A   Unknown
10:55 PM 28.4 °F 23.3 °F 14.0 °F 55% 30.30 in 10.0 mi East 4.6 mph - N/A   Unknown
11:15 PM 28.4 °F 22.2 °F 14.0 °F 55% 30.29 in 10.0 mi East 5.8 mph - N/A   Unknown
11:35 PM 28.4 °F 23.3 °F 14.0 °F 55% 30.28 in 10.0 mi ESE 4.6 mph - N/A   Unknown
11:55 PM 28.4 °F 22.2 °F 14.0 °F 55% 30.28 in 10.0 mi SE 5.8 mph - N/A   Unknown